STARLINK-5103 (53983 NORAD) Tracking and Keplerian Element Data

This shows tracking and keplerian element data for the satellite.

Feedback or suggestion? Click here.




ElementValue
Catalog53983
NameSTARLINK-5103
Epoch Orbit762
Epoch Day324.91667824
Epoch Year2022
RAAN224.1567
Inclination53.2145
Eccentricity0.0002831
Argument of Perigee16.9247
Mean Anonmoly193.2532
Mean Motion15.73220513
Decay Rate-0.00055572
L11 53983U 22125V 22324.91667824 -.00055572 00000+0 -39369-3 0 9994
L22 53983 53.2145 224.1567 0002831 16.9247 193.2532 15.73220513 7629



Live tracking and technical data element details for STARLINK-5103 (NORAD 53983). STARLINK-5103 can be tracked NOW for your location showing map with azimuth and elevation plus other details from your city location.







IsCatalogInMostPopularTable: catalog: 53983, numindb: 3
Update: records affected: 1



GetName: 53983 STARLINK-5103

Hit Count: updated at: Mon, 28 Nov 2022 21:52:33 GMT